Stündliche Wetter Barra da Estiva

Heute, 26 Oktober, Montag

Zeit Temperatur Niederschläge Wind Luftdruck Luftfeuchtigkeit
00:00 +21°C° 1.8 mm 1 m/S 673 mmHg 92%
01:00 +20°C° 1.2 mm 1 m/S 672 mmHg 92%
02:00 +20°C° 1.2 mm 1 m/S 672 mmHg 93%
03:00 +18°C° 1.2 mm 0 m/S 672 mmHg 93%
04:00 +20°C° 0.2 mm 1 m/S 672 mmHg 93%
05:00 +20°C° 0.2 mm 1 m/S 672 mmHg 93%
06:00 +20°C° 0.2 mm 1 m/S 672 mmHg 93%
07:00 +21°C° 0.1 mm 2 m/S 673 mmHg 87%
08:00 +23°C° 0.1 mm 2 m/S 674 mmHg 82%
09:00 +23°C° 0 mm 2 m/S 674 mmHg 87%
10:00 +24°C° 2.3 mm 2 m/S 673 mmHg 80%
11:00 +26°C° 2.3 mm 2 m/S 673 mmHg 72%
12:00 +28°C° 2.3 mm 2 m/S 673 mmHg 64%
13:00 +25°C° 2.9 mm 1 m/S 671 mmHg 74%
14:00 +26°C° 2.9 mm 1 m/S 671 mmHg 72%
15:00 +27°C° 2.9 mm 1 m/S 671 mmHg 70%
16:00 +26°C° 1.5 mm 1 m/S 671 mmHg 69%
17:00 +25°C° 1.5 mm 1 m/S 671 mmHg 73%
18:00 +24°C° 1.5 mm 1 m/S 671 mmHg 77%
19:00 +24°C° 0.9 mm 2 m/S 671 mmHg 76%
20:00 +23°C° 0.9 mm 2 m/S 672 mmHg 78%
21:00 +21°C° 0.9 mm 2 m/S 672 mmHg 81%
22:00 +25°C° 0.6 mm 1 m/S 671 mmHg 75%
23:00 +23°C° 0.6 mm 1 m/S 672 mmHg 80%

Morgen, 27 Oktober, Dienstag

Zeit Temperatur Niederschläge Wind Luftdruck Luftfeuchtigkeit
00:00 +21°C° 0.6 mm 2 m/S 672 mmHg 85%
01:00 +21°C° 0.9 mm 1 m/S 671 mmHg 87%
02:00 +21°C° 0.9 mm 1 m/S 671 mmHg 89%
03:00 +20°C° 0.9 mm 1 m/S 671 mmHg 91%
04:00 +21°C° 0.2 mm 1 m/S 671 mmHg 90%
05:00 +21°C° 0.2 mm 1 m/S 672 mmHg 89%
06:00 +21°C° 0.2 mm 1 m/S 672 mmHg 89%
07:00 +23°C° 0.6 mm 1 m/S 672 mmHg 83%
08:00 +24°C° 0.6 mm 2 m/S 673 mmHg 78%
09:00 +26°C° 0.6 mm 2 m/S 673 mmHg 72%
10:00 +27°C° 1.5 mm 2 m/S 673 mmHg 68%
11:00 +28°C° 1.5 mm 2 m/S 673 mmHg 63%
12:00 +29°C° 1.5 mm 2 m/S 672 mmHg 59%
13:00 +29°C° 2.2 mm 2 m/S 671 mmHg 62%
14:00 +28°C° 2.2 mm 2 m/S 671 mmHg 64%
15:00 +28°C° 2.2 mm 2 m/S 670 mmHg 67%
16:00 +27°C° 1.5 mm 2 m/S 670 mmHg 70%
17:00 +26°C° 1.5 mm 2 m/S 670 mmHg 74%
18:00 +25°C° 1.5 mm 1 m/S 670 mmHg 77%
19:00 +21°C° 0 mm 2 m/S 671 mmHg 86%
20:00 +22°C° 0 mm 1 m/S 671 mmHg 86%
21:00 +22°C° 0 mm 1 m/S 672 mmHg 86%
22:00 +22°C° 0.4 mm 1 m/S 672 mmHg 86%
23:00 +22°C° 0.4 mm 1 m/S 671 mmHg 87%

übermorgen, 28 Oktober, Mittwoch

Zeit Temperatur Niederschläge Wind Luftdruck Luftfeuchtigkeit
00:00 +22°C° 0.4 mm 1 m/S 671 mmHg 88%
01:00 +22°C° 0.8 mm 1 m/S 671 mmHg 88%
02:00 +21°C° 0.8 mm 1 m/S 671 mmHg 88%
03:00 +21°C° 0.8 mm 1 m/S 671 mmHg 88%
04:00 +21°C° 0.3 mm 1 m/S 671 mmHg 89%
05:00 +21°C° 0.3 mm 1 m/S 671 mmHg 90%
06:00 +20°C° 0.3 mm 2 m/S 672 mmHg 91%
07:00 +21°C° 0.1 mm 2 m/S 673 mmHg 86%
08:00 +24°C° 0.1 mm 2 m/S 673 mmHg 80%
09:00 +25°C° 0.1 mm 3 m/S 674 mmHg 75%
10:00 +26°C° 0 mm 3 m/S 674 mmHg 70%
11:00 +27°C° 0 mm 3 m/S 673 mmHg 64%
12:00 +29°C° 0 mm 4 m/S 673 mmHg 59%
13:00 +29°C° 0.3 mm 3 m/S 672 mmHg 59%
14:00 +29°C° 0.3 mm 3 m/S 672 mmHg 59%
15:00 +29°C° 0.3 mm 3 m/S 671 mmHg 59%
16:00 +27°C° 0.7 mm 3 m/S 671 mmHg 65%
17:00 +26°C° 0.7 mm 2 m/S 671 mmHg 72%
18:00 +24°C° 0.7 mm 2 m/S 671 mmHg 78%
19:00 +24°C° 0.9 mm 2 m/S 671 mmHg 80%
20:00 +22°C° 0.9 mm 3 m/S 672 mmHg 81%
21:00 +22°C° 0.9 mm 3 m/S 672 mmHg 83%
22:00 +21°C° 0 mm 3 m/S 672 mmHg 86%
23:00 +21°C° 0 mm 3 m/S 672 mmHg 89%

29 Oktober, Donnerstag

Zeit Temperatur Niederschläge Wind Luftdruck Luftfeuchtigkeit
00:00 +20°C° 0 mm 2 m/S 672 mmHg 92%
01:00 +20°C° 0.1 mm 2 m/S 672 mmHg 92%
02:00 +20°C° 0.1 mm 2 m/S 672 mmHg 91%
03:00 +20°C° 0.1 mm 3 m/S 671 mmHg 91%
04:00 +20°C° 0 mm 3 m/S 672 mmHg 91%
05:00 +19°C° 0 mm 2 m/S 672 mmHg 91%
06:00 +19°C° 0 mm 2 m/S 673 mmHg 90%
07:00 +20°C° 0 mm 3 m/S 674 mmHg 83%
08:00 +22°C° 0 mm 3 m/S 674 mmHg 75%
09:00 +23°C° 0 mm 4 m/S 675 mmHg 67%
10:00 +25°C° 0 mm 4 m/S 675 mmHg 62%
11:00 +26°C° 0 mm 4 m/S 675 mmHg 56%
12:00 +27°C° 0 mm 4 m/S 674 mmHg 51%
13:00 +28°C° 0 mm 4 m/S 674 mmHg 50%
14:00 +28°C° 0 mm 4 m/S 674 mmHg 49%
15:00 +28°C° 0 mm 4 m/S 673 mmHg 48%
16:00 +27°C° 0 mm 3 m/S 673 mmHg 52%
17:00 +25°C° 0 mm 3 m/S 673 mmHg 56%
18:00 +24°C° 0 mm 2 m/S 673 mmHg 61%
19:00 +23°C° 0 mm 2 m/S 673 mmHg 62%
20:00 +23°C° 0 mm 2 m/S 674 mmHg 63%
21:00 +21°C° 0 mm 2 m/S 674 mmHg 65%
22:00 +21°C° 0 mm 2 m/S 674 mmHg 69%
23:00 +22°C° 0 mm 1 m/S 674 mmHg 74%

30 Oktober, Freitag

Zeit Temperatur Niederschläge Wind Luftdruck Luftfeuchtigkeit
00:00 +21°C° 0 mm 1 m/S 674 mmHg 78%
01:00 +20°C° 0 mm 2 m/S 674 mmHg 81%
02:00 +20°C° 0 mm 2 m/S 673 mmHg 83%
03:00 +20°C° 0 mm 3 m/S 673 mmHg 86%
04:00 +19°C° 0 mm 3 m/S 673 mmHg 86%
05:00 +19°C° 0 mm 3 m/S 674 mmHg 86%
06:00 +19°C° 0 mm 3 m/S 674 mmHg 86%
07:00 +20°C° 0 mm 3 m/S 675 mmHg 81%
08:00 +21°C° 0 mm 3 m/S 675 mmHg 76%
09:00 +22°C° 0 mm 3 m/S 675 mmHg 72%
10:00 +23°C° 0 mm 4 m/S 675 mmHg 67%
11:00 +26°C° 0 mm 4 m/S 675 mmHg 62%
12:00 +27°C° 0 mm 4 m/S 675 mmHg 58%
13:00 +27°C° 0 mm 4 m/S 675 mmHg 57%
14:00 +28°C° 0 mm 4 m/S 674 mmHg 55%
15:00 +28°C° 0 mm 4 m/S 673 mmHg 54%
16:00 +26°C° 0 mm 3 m/S 673 mmHg 58%
17:00 +25°C° 0 mm 3 m/S 673 mmHg 63%
18:00 +24°C° 0 mm 2 m/S 673 mmHg 67%
19:00 +23°C° 0 mm 2 m/S 674 mmHg 67%
20:00 +23°C° 0 mm 2 m/S 674 mmHg 68%
21:00 +22°C° 0 mm 1 m/S 675 mmHg 68%
22:00 +22°C° 0 mm 1 m/S 674 mmHg 72%
23:00 +21°C° 0 mm 1 m/S 674 mmHg 76%

31 Oktober, Samstag

Zeit Temperatur Niederschläge Wind Luftdruck Luftfeuchtigkeit
00:00 +21°C° 0 mm 1 m/S 674 mmHg 80%
01:00 +21°C° 0 mm 1 m/S 674 mmHg 83%
02:00 +20°C° 0 mm 1 m/S 674 mmHg 85%
03:00 +19°C° 0 mm 2 m/S 673 mmHg 88%
Mehr zeigen